Weather in Sever

Russia / Tomsk District     58°26′26″N   82°48′52″E
temp.,
°C
wind,
m/s
gust,
m/s
humid.,
%
clouds,
%
prec.,
mm/h
press.,
hPa
HPBL,
m
17 april, sat
sat1701:00−6n487778 0.0 1022728
04:00−8n367918 0.0 1023564
07:00−8nnw23725 0.0 1025429
10:00−5w23535 0.0 1025756
13:00−2w3545100 0.0 10241004
16:00+1wsw574049 0.0 10221472
19:00+1wsw484730 0.0 10201181
22:00−2ssw41165100 0.0 1018302
18 april, sun
sun1801:00−1ssw61366100 0.0 1015633
04:00−1ssw71472100 0.0 1011875
07:00−2ssw71694100 0.9 10081026
10:00+1sw61084100 0.6 1006992
13:00+3wsw3576100 0.9 1005851
16:00+1ne3496100 1.0 1004361
19:00−2ne71294100 4.4 1002717
22:00−4nne81692100 1.9 1002893
19 april, mon
mon1901:00−7n91691100 6.1 10051106
04:00−10nnw81579100 0.8 1009968
07:00−12nnw81579100 0.8 1014801
10:00−10nw71172100 0.0 1018905
13:00−7nw795657 0.0 10211274
16:00−6wnw795272 0.0 10231491
19:00−6nw585999 0.0 10241517
22:00−8nw497474 0.0 1026360
20 april, tue
tue2001:00−9nw38805 0.0 1027318
04:00−11wnw248817 0.0 102781
07:00−10w379311 0.0 1027313
10:00−7w4673100 0.0 1026986
13:00−4wsw4658100 0.1 10241597
16:00−3sw5767100 0.1 10221360
19:00−3ssw4992100 0.4 1019868
22:00−4s51095100 0.7 1017743
21 april, wed
wed2101:00−4s51095100 1.4 1015638
04:00−4se4995100 0.8 1014528
07:00−4ese4994100 1.3 1015489
10:00−2e5885100 0.2 1018794
13:000ene6981100 0.4 10211163
16:00+1ene6976100 0.6 10241323
19:000ene5972100 0.9 10281141
22:00−2ne411825 0.0 1032415